| time (UTC) | temp C | wind direction | speed KPH | gust KPH | rain 1hr cm | rain 24hr cm | rain mn cm | humidity % | barometer mb |
| 20260505051520 | 18 | 180 | 3.2 | 14.5 | 0.00 | 0.00 | 0.00 | 64 | 1002.1 |
| 20260505050540 | 18 | 0.0 | 6.4 | 0.00 | 0.00 | 0.00 | 64 | 1002.0 | |
| 20260505041519 | 16 | 225 | 3.2 | 11.3 | 0.00 | 0.00 | 0.00 | 64 | 1002.4 |
| 20260505040520 | 16 | 0.0 | 3.2 | 0.00 | 0.00 | 0.00 | 66 | 1002.2 | |
| 20260505035519 | 15 | 0.0 | 0.0 | 0.00 | 0.00 | 0.00 | 67 | 1002.3 | |
| 20260505034519 | 15 | 0.0 | 4.8 | 0.00 | 0.00 | 0.00 | 68 | 1002.4 | |
| 20260505033518 | 13 | 0.0 | 6.4 | 0.00 | 0.00 | 0.00 | 70 | 1002.4 | |
| 20260505032559 | 13 | 203 | 1.6 | 6.4 | 0.00 | 0.00 | 0.00 | 70 | 1002.4 |
| 20260505031519 | 13 | 0.0 | 0.0 | 0.00 | 0.00 | 0.00 | 70 | 1002.3 | |
| 20260505030519 | 13 | 0.0 | 0.0 | 0.00 | 0.00 | 0.00 | 66 | 1002.1 | |
| 20260505025519 | 13 | 0.0 | 0.0 | 0.00 | 0.00 | 0.00 | 64 | 1002.1 | |
| 20260505024519 | 13 | 0.0 | 0.0 | 0.00 | 0.00 | 0.00 | 64 | 1002.1 | |
| 20260505023539 | 13 | 0.0 | 0.0 | 0.00 | 0.00 | 0.00 | 62 | 1002.0 | |
| 20260505022518 | 14 | 0.0 | 0.0 | 0.00 | 0.00 | 0.00 | 61 | 1002.2 | |
| 20260505021518 | 15 | 0.0 | 0.0 | 0.00 | 0.00 | 0.00 | 61 | 1002.2 | |
| 20260505020539 | 15 | 0.0 | 0.0 | 0.00 | 0.00 | 0.00 | 59 | 1002.3 | |
| 20260505015522 | 15 | 0.0 | 0.0 | 0.00 | 0.00 | 0.00 | 58 | 1002.5 | |
| 20260505014519 | 16 | 0.0 | 0.0 | 0.00 | 0.00 | 0.00 | 57 | 1002.5 | |
| 20260505013519 | 16 | 0.0 | 0.0 | 0.00 | 0.00 | 0.00 | 58 | 1002.4 | |
| 20260505012519 | 17 | 0.0 | 0.0 | 0.00 | 0.00 | 0.00 | 53 | 1002.4 | |
| 20260505011519 | 17 | 0.0 | 0.0 | 0.00 | 0.00 | 0.00 | 52 | 1002.2 | |
| 20260505010519 | 18 | 0.0 | 0.0 | 0.00 | 0.00 | 0.00 | 50 | 1002.1 | |
| 20260505005538 | 18 | 0.0 | 0.0 | 0.00 | 0.00 | 0.00 | 49 | 1002.0 | |
| 20260505004519 | 19 | 0.0 | 0.0 | 0.00 | 0.00 | 0.00 | 46 | 1002.0 | |
| 20260505003539 | 20 | 0.0 | 0.0 | 0.00 | 0.00 | 0.00 | 44 | 1002.0 | |
| 20260505002518 | 21 | 0.0 | 0.0 | 0.00 | 0.00 | 0.00 | 43 | 1002.0 | |
| 20260505001519 | 21 | 0.0 | 0.0 | 0.00 | 0.00 | 0.00 | 42 | 1002.1 | |
| 20260505000519 | 21 | 0.0 | 0.0 | 0.00 | 0.00 | 0.00 | 40 | 1002.1 | |
| 20260504235519 | 22 | 0.0 | 0.0 | 0.00 | 0.00 | 0.00 | 40 | 1001.9 | |
| 20260504234518 | 22 | 0.0 | 0.0 | 0.00 | 0.00 | 0.00 | 40 | 1001.9 | |
| 20260504233518 | 22 | 225 | 1.6 | 9.7 | 0.00 | 0.00 | 0.00 | 38 | 1001.7 |
| 20260504232519 | 22 | 0.0 | 0.0 | 0.00 | 0.00 | 0.00 | 38 | 1001.7 | |
| 20260504231519 | 22 | 0.0 | 0.0 | 0.00 | 0.00 | 0.00 | 38 | 1001.7 | |
| 20260504230519 | 22 | 0.0 | 1.6 | 0.00 | 0.00 | 0.00 | 35 | 1001.7 | |
| 20260504225520 | 22 | 0.0 | 0.0 | 0.00 | 0.00 | 0.00 | 34 | 1001.7 | |
| 20260504224539 | 23 | 0.0 | 3.2 | 0.00 | 0.00 | 0.00 | 34 | 1001.6 | |
| 20260504223538 | 23 | 0.0 | 3.2 | 0.00 | 0.00 | 0.00 | 34 | 1001.6 | |
| 20260504222539 | 23 | 248 | 3.2 | 8.0 | 0.00 | 0.00 | 0.00 | 31 | 1001.7 |
| 20260504221519 | 23 | 158 | 1.6 | 11.3 | 0.00 | 0.00 | 0.00 | 34 | 1001.7 |
| 20260504220521 | 23 | 225 | 3.2 | 11.3 | 0.00 | 0.00 | 0.00 | 32 | 1001.7 |
| 20260504215519 | 23 | 248 | 1.6 | 6.4 | 0.00 | 0.00 | 0.00 | 33 | 1001.8 |
| 20260504214539 | 23 | 203 | 1.6 | 4.8 | 0.00 | 0.00 | 0.00 | 32 | 1001.9 |
| 20260504213518 | 23 | 225 | 3.2 | 11.3 | 0.00 | 0.00 | 0.00 | 32 | 1001.9 |
| 20260504212519 | 24 | 270 | 3.2 | 16.1 | 0.00 | 0.00 | 0.00 | 31 | 1002.0 |
| 20260504211518 | 24 | 158 | 3.2 | 11.3 | 0.00 | 0.00 | 0.00 | 31 | 1002.1 |
| 20260504210520 | 24 | 180 | 1.6 | 11.3 | 0.00 | 0.00 | 0.00 | 32 | 1002.1 |
| 20260504205538 | 24 | 225 | 1.6 | 8.0 | 0.00 | 0.00 | 0.00 | 33 | 1002.2 |
| 20260504204518 | 24 | 203 | 3.2 | 9.7 | 0.00 | 0.00 | 0.00 | 31 | 1002.4 |
| 20260504203518 | 25 | 225 | 3.2 | 11.3 | 0.00 | 0.00 | 0.00 | 33 | 1002.4 |
| 20260504202519 | 24 | 225 | 3.2 | 11.3 | 0.00 | 0.00 | 0.00 | 35 | 1002.5 |
| 20260504201518 | 24 | 158 | 8.0 | 20.9 | 0.00 | 0.00 | 0.00 | 32 | 1002.7 |
| 20260504200518 | 24 | 180 | 6.4 | 12.9 | 0.00 | 0.00 | 0.00 | 33 | 1002.8 |
| 20260504195520 | 25 | 225 | 1.6 | 6.4 | 0.00 | 0.00 | 0.00 | 35 | 1002.8 |
| 20260504194518 | 24 | 158 | 4.8 | 14.5 | 0.00 | 0.00 | 0.00 | 36 | 1002.9 |
| 20260504193519 | 25 | 225 | 4.8 | 14.5 | 0.00 | 0.00 | 0.00 | 33 | 1003.2 |
| 20260504192520 | 25 | 225 | 4.8 | 11.3 | 0.00 | 0.00 | 0.00 | 33 | 1003.3 |
| 20260504191518 | 24 | 270 | 4.8 | 16.1 | 0.00 | 0.00 | 0.00 | 32 | 1003.5 |
| 20260504190519 | 24 | 180 | 4.8 | 17.7 | 0.00 | 0.00 | 0.00 | 40 | 1003.6 |
| 20260504185539 | 25 | 225 | 6.4 | 17.7 | 0.00 | 0.00 | 0.00 | 34 | 1003.6 |
| 20260504184538 | 24 | 180 | 3.2 | 12.9 | 0.00 | 0.00 | 0.00 | 38 | 1003.7 |
| 20260504183540 | 23 | 180 | 3.2 | 9.7 | 0.00 | 0.00 | 0.00 | 41 | 1004.0 |
| 20260504182518 | 24 | 225 | 4.8 | 16.1 | 0.00 | 0.00 | 0.00 | 42 | 1004.1 |
| 20260504181519 | 24 | 180 | 4.8 | 25.7 | 0.00 | 0.00 | 0.00 | 42 | 1004.3 |
| 20260504180519 | 24 | 225 | 3.2 | 11.3 | 0.00 | 0.00 | 0.00 | 41 | 1004.3 |
| 20260504175520 | 23 | 225 | 6.4 | 17.7 | 0.00 | 0.00 | 0.00 | 39 | 1004.3 |
| 20260504174519 | 23 | 225 | 6.4 | 12.9 | 0.00 | 0.00 | 0.00 | 43 | 1004.4 |
| 20260504173538 | 23 | 270 | 3.2 | 9.7 | 0.00 | 0.00 | 0.00 | 42 | 1004.6 |
| 20260504172538 | 23 | 225 | 4.8 | 12.9 | 0.00 | 0.00 | 0.00 | 43 | 1004.6 |
| 20260504171519 | 23 | 180 | 4.8 | 22.5 | 0.00 | 0.00 | 0.00 | 47 | 1004.5 |
| 20260504170519 | 22 | 203 | 3.2 | 12.9 | 0.00 | 0.00 | 0.00 | 46 | 1004.7 |
| 20260504150518 | 19 | 248 | 4.8 | 19.3 | 0.00 | 0.00 | 0.00 | 49 | 1005.8 |
| 20260504140518 | 16 | 180 | 6.4 | 14.5 | 0.00 | 0.00 | 0.00 | 52 | 1005.7 |
| 20260504130518 | 14 | 158 | 1.6 | 12.9 | 0.00 | 0.00 | 0.00 | 55 | 1006.3 |
| 20260504110538 | 11 | 180 | 1.6 | 9.7 | 0.00 | 0.00 | 0.00 | 58 | 1006.8 |
| 20260504100520 | 11 | 0.0 | 6.4 | 0.00 | 0.00 | 0.00 | 57 | 1006.5 | |
| 20260504081520 | 9 | 180 | 1.6 | 8.0 | 0.00 | 0.00 | 0.00 | 64 | 1007.2 |
| 20260504080520 | 9 | 0.0 | 1.6 | 0.00 | 0.00 | 0.00 | 66 | 1007.3 |